Regional Weather Roundup
Issued by NWS

Home | Current Version | Previous Version | Text Only | Print | Product List | Glossary On
Versions: 1 2 3 4 5 6 7 8 9 10 11 12 13 14 15 16 17 18 19 20 21 22 23 24 25 26 27 28 29 30 31 32 33 34 35 36 37 38 39 40 41 42 43 44 45 46 47 48 49 50
000
ASUS44 KFWD 260001
RWRTX
NORTH TEXAS HOURLY WEATHER ROUNDUP
NATIONAL WEATHER SERVICE FORT WORTH TX
700 PM CDT FRI JUL 25 2014

NOTE: "FAIR" INDICATES FEW OR NO CLOUDS BELOW 12,000 FEET WITH NO
SIGNIFICANT WEATHER AND/OR OBSTRUCTIONS TO VISIBILITY.

TXZ118-119-260100-
DALLAS/FORT WORTH METROPLEX

CITY           SKY/WX    TMP DP  RH WIND       PRES   REMARKS
DFW AIRPORT    MOSUNNY   99  62  29 S9        29.90S HX 100
6HR MIN TEMP:  95; 6HR MAX TEMP: 100;

DALLAS LOVE    MOSUNNY   98  62  30 S12       29.89S HX  99
6HR MIN TEMP:  94; 6HR MAX TEMP: 100;

FTW MEACHAM    SUNNY     98  65  33 S8        29.89S HX 101
6HR MIN TEMP:  95; 6HR MAX TEMP: 101;

DAL-EXECUTIVE  MOSUNNY   97  66  36 S6        29.90S HX 100
6HR MIN TEMP:  95; 6HR MAX TEMP: 100;

FTW-ALLIANCE   MOSUNNY   95  64  35 S8        29.89S HX  97
6HR MIN TEMP:  93; 6HR MAX TEMP:  98;

FTW-NAS-JRB    MOSUNNY  100  61  27 S12       29.94S HX 101
6HR MIN TEMP:  98; 6HR MAX TEMP: 103;

FTW-SPINKS     SUNNY     99  63  30 S7        29.92S HX 100
ARLINGTON      SUNNY     97  62  31 S8        29.90S HX  98
6HR MIN TEMP:  94; 6HR MAX TEMP:  99;

ADDISON        MOSUNNY   97  61  30 SE13G18   29.91S HX  97
MESQUITE       SUNNY     95  66  38 SE8       29.91S HX  98
LANCASTER      SUNNY     95  66  38 S10       29.92S HX  98
6HR MIN TEMP:  94; 6HR MAX TEMP:  99;

$$

TXZ091>094-102>105-117-120-121-131>134-260100-
NORTH CENTRAL TEXAS

CITY           SKY/WX    TMP DP  RH WIND       PRES   REMARKS
SHRMAN/DENISON SUNNY     96  63  32 SE10      29.91S HX  97
6HR MIN TEMP:  92; 6HR MAX TEMP:  98;

GAINESVILLE    SUNNY     95  64  36 S10       29.92S HX  96
6HR MIN TEMP:  91; 6HR MAX TEMP:  96;

BRIDGEPORT     SUNNY     96  58  28 SE8       29.91S HX  95
6HR MIN TEMP:  92; 6HR MAX TEMP:  98;

DECATUR        SUNNY     95  61  31 S10       29.92S HX  95
6HR MIN TEMP:  92; 6HR MAX TEMP:  97;

DENTON         SUNNY     95  65  37 S9        29.89F HX  97
6HR MIN TEMP:  92; 6HR MAX TEMP:  97;

MCKINNEY       SUNNY     95  68  41 SE13      29.90S HX  99
6HR MIN TEMP:  91; 6HR MAX TEMP:  96;

ROCKWALL       SUNNY     95  69  43 SE9       29.90F HX 100
6HR MIN TEMP:  91; 6HR MAX TEMP:  97;

TERRELL        SUNNY     95  68  41 SE13      29.93R HX  99
6HR MIN TEMP:  93; 6HR MAX TEMP:  98;

WAXAHACHIE     MOSUNNY   95  61  31 S8        29.92S HX  95
6HR MIN TEMP:  93; 6HR MAX TEMP:  98;

CLEBURNE       SUNNY     95  68  41 S7        29.93S HX  99
GRANBURY       SUNNY     98  62  29 SE13      29.92S HX  99
6HR MIN TEMP:  96; 6HR MAX TEMP: 100;

$$

TXZ083>090-098>101-113>116-127>130-139>142-154-155-260100-
WESTERN NORTH TEXAS

CITY           SKY/WX    TMP DP  RH WIND       PRES   REMARKS
WICHITA FALLS  SUNNY     98  58  26 S15       29.86F HX  97
6HR MIN TEMP:  94; 6HR MAX TEMP:  99;

WF-KICKAPOO    SUNNY    100  56  23 S9        29.89S HX  98
6HR MIN TEMP:  95; 6HR MAX TEMP: 101;

VERNON         SUNNY    101  51  18 S13       29.88S HX  98
6HR MIN TEMP:  95; 6HR MAX TEMP: 104;

ABILENE        SUNNY     95  59  30 S15       29.95S HX  94
6HR MIN TEMP:  91; 6HR MAX TEMP:  97;

ABILENE-DYESS  SUNNY     95  60  31 S12       29.93F HX  94
6HR MIN TEMP:  92; 6HR MAX TEMP:  96;

BRECKENRIDGE   SUNNY     99  55  22 S9        29.91S HX  97
6HR MIN TEMP:  94; 6HR MAX TEMP: 101;

MINERAL WELLS  SUNNY     97  63  32 SE13G22   29.89S HX  98
6HR MIN TEMP:  94; 6HR MAX TEMP: 101;

STEPHENVILLE   SUNNY     94  60  31 SE12      29.97S HX  94
6HR MIN TEMP:  91; 6HR MAX TEMP:  96;

COMANCHE       SUNNY     94  60  32 SE8       29.94F HX  94
6HR MIN TEMP:  92; 6HR MAX TEMP:  97;

BROWNWOOD      SUNNY     95  63  34 SE7       29.94S HX  96
COLEMAN        SUNNY     95  57  27 S8        29.95F HX  94
6HR MIN TEMP:  91; 6HR MAX TEMP:  96;

$$

TXZ143>147-156>162-174-175-260100-
CENTRAL TEXAS

CITY           SKY/WX    TMP DP  RH WIND       PRES   REMARKS
WACO           SUNNY     95  66  38 S9        29.92S HX  98
6HR MIN TEMP:  94; 6HR MAX TEMP:  98;

WACO-TSTC      SUNNY     95  64  36 S8        29.92S HX  97
WACO-MCGREGOR  SUNNY     97  64  34 S13       29.93S HX  99
6HR MIN TEMP:  93; 6HR MAX TEMP:  99;

HILLSBORO      SUNNY     96  62  33 S8        29.92S HX  96
6HR MIN TEMP:  92; 6HR MAX TEMP:  99;

CORSICANA      SUNNY     93  68  43 SE12      29.94S HX  97
6HR MIN TEMP:  93; 6HR MAX TEMP:  96;

MEXIA          SUNNY     90  73  57 SE9       29.94S HX  98
6HR MIN TEMP:  90; 6HR MAX TEMP:  93;

TEMPLE         SUNNY     91  66  43 SE12      29.95S HX  94
6HR MIN TEMP:  91; 6HR MAX TEMP:  95;

KILLEEN        MOSUNNY   91  66  43 SE13      29.94S HX  94
KILLEEN-SKYLRK SUNNY     95  64  36 S9        29.94S HX  97
6HR MIN TEMP:  91; 6HR MAX TEMP:  97;

FORT HOOD      SUNNY     95  65  37 SE10      29.94S HX  97
6HR MIN TEMP:  93; 6HR MAX TEMP:  98;

HAMILTON       SUNNY     93  61  33 S12G17    29.95F HX  93
6HR MIN TEMP:  91; 6HR MAX TEMP:  96;

LAMPASAS       SUNNY     95  70  44 SE8       29.95R HX 101
6HR MIN TEMP:  91; 6HR MAX TEMP:  96;

$$

TXZ095>097-106>112-122>126-135>138-148>153-164>167-260100-
EAST TEXAS

CITY           SKY/WX    TMP DP  RH WIND       PRES   REMARKS
PARIS          SUNNY     90  72  55 SE9       29.95S HX  96
6HR MIN TEMP:  88; 6HR MAX TEMP:  91;

CLARKSVILLE    SUNNY     92  71  51 SE7       29.94F HX  98
6HR MIN TEMP:  88; 6HR MAX TEMP:  93;

MOUNT PLEASANT SUNNY     90  72  55 SE5       29.96S HX  96
6HR MIN TEMP:  87; 6HR MAX TEMP:  92;

MINEOLA        SUNNY     91  72  52 S6        29.95F HX  98
TYLER          SUNNY     91  71  51 S8        29.96S HX  97
6HR MIN TEMP:  89; 6HR MAX TEMP:  93;

LONGVIEW       SUNNY     90  71  53 S5        29.96R HX  96
6HR MIN TEMP:  88; 6HR MAX TEMP:  93;

MARSHALL       SUNNY     91  77  62 SE3       29.98S HX 104
6HR MIN TEMP:  89; 6HR MAX TEMP:  94;

ATHENS         SUNNY     88  72  58 S6        29.94S HX  94
JACKSONVILLE   SUNNY     90  69  50 S3        30.00S HX  94
HENDERSON      SUNNY     90  71  53 CALM      29.97S HX  96
6HR MIN TEMP:  89; 6HR MAX TEMP:  92;

NACOGDOCHES    SUNNY     90  72  55 SW3       29.97R HX  96
6HR MIN TEMP:  88; 6HR MAX TEMP:  91;

LUFKIN         SUNNY     94  73  50 CALM      29.96R HX 103
6HR MIN TEMP:  92; 6HR MAX TEMP:  96;

$$

SUPPLEMENTAL OBSERVATIONS (CENTRAL)

CITY           SKY/WX    TMP DP  RH WIND       PRES   REMARKS
$$

SUPPLEMENTAL OBSERVATIONS (WEST)

CITY           SKY/WX    TMP DP  RH WIND       PRES   REMARKS
$$

SUPPLEMENTAL OBSERVATIONS (EAST)

CITY           SKY/WX    TMP DP  RH WIND       PRES   REMARKS
$$

SUPPLEMENTAL OBSERVATIONS ARE A COLLECTION OF AUTOMATED INSTRUMENTS
THAT ARE MAINTAINED BY A VARIETY OF FEDERAL AND STATE AGENCIES.
CERTAIN ELEMENTS...SUCH AS HUMIDITY VALUES AND SUSTAINED WIND
SPEEDS...MAY BE APPROXIMATED.




USA.gov is the U.S. government's official web portal to all federal, state and local government web resources and services.